Year,Month,Day,Hour,Minute,Value (Times are PST for windgust in km/hr)
2016,03,15,00,01,1.60
2016,03,15,00,02,1.60
2016,03,15,00,03,1.60
2016,03,15,00,08,1.60
2016,03,15,00,16,14.50
2016,03,15,00,17,12.90
2016,03,15,00,18,17.70
2016,03,15,00,19,11.30
2016,03,15,00,20,14.50
2016,03,15,00,21,6.40
2016,03,15,00,22,9.60
2016,03,15,00,23,11.30
2016,03,15,00,24,9.60
2016,03,15,00,25,3.20
2016,03,15,00,26,3.20
2016,03,15,00,27,17.70
2016,03,15,00,28,4.80
2016,03,15,00,29,6.40
2016,03,15,00,30,4.80
2016,03,15,00,31,6.40
2016,03,15,00,32,6.40
2016,03,15,00,33,6.40
2016,03,15,00,34,4.80
2016,03,15,00,35,3.20
2016,03,15,00,36,4.80
2016,03,15,00,37,4.80
2016,03,15,00,38,3.20
2016,03,15,00,39,3.20
2016,03,15,00,40,3.20
2016,03,15,00,41,1.60
2016,03,15,00,42,3.20
2016,03,15,00,43,3.20
2016,03,15,00,44,1.60
2016,03,15,00,45,1.60
2016,03,15,00,46,3.20
2016,03,15,00,47,3.20
2016,03,15,00,48,4.80
2016,03,15,00,49,3.20
2016,03,15,00,50,6.40
2016,03,15,00,51,3.20
2016,03,15,00,52,4.80
2016,03,15,00,53,4.80
2016,03,15,00,54,3.20
2016,03,15,00,55,1.60
2016,03,15,00,56,3.20
2016,03,15,00,57,1.60
2016,03,15,00,58,3.20
2016,03,15,00,59,4.80
2016,03,15,01,00,4.80
2016,03,15,01,01,3.20
2016,03,15,01,02,3.20
2016,03,15,01,03,3.20
2016,03,15,01,04,3.20
2016,03,15,01,05,3.20
2016,03,15,01,06,4.80
2016,03,15,01,07,3.20
2016,03,15,01,08,3.20
2016,03,15,01,09,1.60
2016,03,15,01,10,1.60
2016,03,15,01,11,1.60
2016,03,15,01,12,3.20
2016,03,15,01,13,4.80
2016,03,15,01,14,4.80
2016,03,15,01,15,3.20
2016,03,15,01,16,6.40
2016,03,15,01,17,3.20
2016,03,15,01,18,3.20
2016,03,15,01,19,1.60
2016,03,15,01,20,4.80
2016,03,15,01,21,1.60
2016,03,15,01,22,1.60
2016,03,15,01,23,1.60
2016,03,15,01,24,1.60
2016,03,15,01,26,1.60
2016,03,15,01,27,1.60
2016,03,15,01,29,1.60
2016,03,15,01,30,1.60
2016,03,15,01,31,1.60
2016,03,15,01,32,3.20
2016,03,15,01,33,1.60
2016,03,15,01,35,1.60
2016,03,15,01,36,3.20
2016,03,15,01,37,1.60
2016,03,15,01,38,3.20
2016,03,15,01,39,3.20
2016,03,15,01,40,1.60
2016,03,15,01,41,1.60
2016,03,15,01,42,1.60
2016,03,15,01,43,1.60
2016,03,15,01,44,1.60
2016,03,15,01,45,1.60
2016,03,15,01,46,1.60
2016,03,15,01,47,4.80
2016,03,15,01,48,3.20
2016,03,15,01,49,4.80
2016,03,15,01,50,3.20
2016,03,15,01,51,1.60
2016,03,15,01,52,1.60
2016,03,15,01,53,1.60
2016,03,15,01,54,6.40
2016,03,15,01,55,1.60
2016,03,15,01,56,3.20
2016,03,15,01,59,1.60
2016,03,15,02,00,3.20
2016,03,15,02,01,1.60
2016,03,15,02,02,1.60
2016,03,15,02,04,1.60
2016,03,15,02,05,3.20
2016,03,15,02,06,1.60
2016,03,15,02,07,1.60
2016,03,15,02,10,1.60
2016,03,15,02,11,1.60
2016,03,15,02,16,1.60
2016,03,15,02,17,1.60
2016,03,15,02,18,1.60
2016,03,15,02,19,3.20
2016,03,15,02,20,3.20
2016,03,15,02,23,1.60
2016,03,15,02,24,1.60
2016,03,15,02,25,1.60
2016,03,15,02,26,9.60
2016,03,15,02,27,6.40
2016,03,15,02,28,1.60
2016,03,15,02,36,1.60
2016,03,15,02,41,1.60
2016,03,15,02,45,3.20
2016,03,15,02,46,3.20
2016,03,15,02,51,1.60
2016,03,15,02,52,1.60
2016,03,15,02,53,1.60
2016,03,15,02,54,1.60
2016,03,15,02,57,1.60
2016,03,15,03,08,1.60
2016,03,15,03,11,3.20
2016,03,15,03,25,1.60
2016,03,15,03,27,1.60
2016,03,15,03,28,1.60
2016,03,15,03,29,1.60
2016,03,15,03,30,1.60
2016,03,15,03,31,1.60
2016,03,15,03,33,1.60
2016,03,15,03,34,1.60
2016,03,15,03,36,1.60
2016,03,15,03,39,1.60
2016,03,15,03,40,1.60
2016,03,15,03,45,3.20
2016,03,15,03,46,1.60
2016,03,15,03,52,1.60
2016,03,15,03,55,3.20
2016,03,15,03,56,4.80
2016,03,15,03,57,6.40
2016,03,15,03,58,1.60
2016,03,15,04,00,1.60
2016,03,15,04,03,1.60
2016,03,15,04,04,1.60
2016,03,15,04,05,1.60
2016,03,15,04,06,1.60
2016,03,15,04,07,1.60
2016,03,15,04,10,1.60
2016,03,15,04,11,1.60
2016,03,15,04,12,1.60
2016,03,15,04,13,1.60
2016,03,15,04,14,3.20
2016,03,15,04,17,1.60
2016,03,15,04,18,1.60
2016,03,15,04,19,1.60
2016,03,15,04,20,1.60
2016,03,15,04,21,1.60
2016,03,15,04,23,1.60
2016,03,15,04,24,1.60
2016,03,15,04,25,1.60
2016,03,15,04,26,1.60
2016,03,15,04,29,1.60
2016,03,15,04,31,3.20
2016,03,15,04,32,1.60
2016,03,15,04,35,1.60
2016,03,15,04,36,1.60
2016,03,15,04,37,3.20
2016,03,15,04,38,1.60
2016,03,15,04,39,4.80
2016,03,15,04,40,1.60
2016,03,15,04,41,1.60
2016,03,15,04,42,1.60
2016,03,15,04,43,1.60
2016,03,15,04,44,1.60
2016,03,15,04,45,3.20
2016,03,15,04,46,3.20
2016,03,15,04,47,1.60
2016,03,15,04,48,3.20
2016,03,15,04,49,3.20
2016,03,15,04,50,1.60
2016,03,15,04,51,1.60
2016,03,15,04,53,1.60
2016,03,15,04,58,1.60
2016,03,15,04,59,1.60
2016,03,15,05,01,3.20
2016,03,15,05,02,1.60
2016,03,15,05,07,1.60
2016,03,15,05,27,1.60
2016,03,15,05,36,1.60
2016,03,15,05,37,3.20
2016,03,15,05,38,1.60
2016,03,15,08,08,1.60
2016,03,15,08,29,1.60
2016,03,15,08,38,1.60
2016,03,15,08,39,1.60
2016,03,15,08,40,1.60
2016,03,15,08,41,1.60
2016,03,15,08,42,1.60
2016,03,15,08,43,3.20
2016,03,15,08,44,1.60
2016,03,15,08,45,1.60
2016,03,15,08,46,3.20
2016,03,15,08,47,4.80
2016,03,15,08,48,3.20
2016,03,15,08,49,1.60
2016,03,15,08,51,1.60
2016,03,15,08,52,1.60
2016,03,15,08,58,1.60
2016,03,15,08,59,3.20
2016,03,15,09,00,1.60
2016,03,15,09,01,1.60
2016,03,15,09,02,1.60
2016,03,15,09,03,1.60
2016,03,15,09,06,1.60
2016,03,15,09,07,1.60
2016,03,15,09,08,1.60
2016,03,15,09,09,1.60
2016,03,15,09,10,3.20
2016,03,15,09,11,1.60
2016,03,15,09,14,3.20
2016,03,15,09,15,3.20
2016,03,15,09,16,1.60
2016,03,15,09,17,1.60
2016,03,15,09,19,1.60
2016,03,15,09,22,1.60
2016,03,15,09,24,1.60
2016,03,15,09,25,3.20
2016,03,15,09,26,1.60
2016,03,15,09,39,1.60
2016,03,15,09,51,1.60
2016,03,15,09,52,1.60
2016,03,15,09,53,1.60
2016,03,15,09,54,1.60
2016,03,15,09,55,3.20
2016,03,15,09,56,4.80
2016,03,15,09,57,1.60
2016,03,15,09,58,1.60
2016,03,15,09,59,1.60
2016,03,15,10,00,1.60
2016,03,15,10,04,1.60
2016,03,15,10,05,1.60
2016,03,15,10,06,1.60
2016,03,15,10,07,1.60
2016,03,15,10,08,1.60
2016,03,15,10,09,1.60
2016,03,15,10,13,1.60
2016,03,15,10,14,1.60
2016,03,15,10,35,1.60
2016,03,15,10,36,3.20
2016,03,15,10,37,1.60
2016,03,15,10,38,1.60
2016,03,15,10,42,3.20
2016,03,15,10,43,1.60
2016,03,15,10,46,1.60
2016,03,15,10,47,1.60
2016,03,15,10,49,1.60
2016,03,15,10,50,3.20
2016,03,15,10,52,1.60
2016,03,15,10,53,3.20
2016,03,15,10,54,3.20
2016,03,15,10,55,4.80
2016,03,15,10,56,4.80
2016,03,15,10,57,1.60
2016,03,15,10,58,3.20
2016,03,15,10,59,3.20
2016,03,15,11,00,3.20
2016,03,15,11,01,3.20
2016,03,15,11,02,4.80
2016,03,15,11,03,3.20
2016,03,15,11,04,1.60
2016,03,15,11,05,6.40
2016,03,15,11,06,4.80
2016,03,15,11,07,4.80
2016,03,15,11,08,4.80
2016,03,15,11,09,3.20
2016,03,15,11,10,4.80
2016,03,15,11,11,6.40
2016,03,15,11,12,4.80
2016,03,15,11,13,3.20
2016,03,15,11,14,4.80
2016,03,15,11,15,8.10
2016,03,15,11,16,6.40
2016,03,15,11,17,6.40
2016,03,15,11,18,8.10
2016,03,15,11,19,9.60
2016,03,15,11,20,9.60
2016,03,15,11,21,4.80
2016,03,15,11,22,6.40
2016,03,15,11,23,6.40
2016,03,15,11,24,6.40
2016,03,15,11,25,1.60
2016,03,15,11,26,4.80
2016,03,15,11,27,4.80
2016,03,15,11,28,3.20
2016,03,15,11,29,3.20
2016,03,15,11,30,1.60
2016,03,15,11,31,4.80
2016,03,15,11,32,3.20
2016,03,15,11,33,3.20
2016,03,15,11,34,1.60
2016,03,15,11,35,4.80
2016,03,15,11,36,4.80
2016,03,15,11,37,4.80
2016,03,15,11,38,8.10
2016,03,15,11,39,9.60
2016,03,15,11,40,4.80
2016,03,15,11,41,4.80
2016,03,15,11,42,4.80
2016,03,15,11,43,3.20
2016,03,15,11,44,3.20
2016,03,15,11,45,6.40
2016,03,15,11,46,9.60
2016,03,15,11,47,8.10
2016,03,15,11,48,6.40
2016,03,15,11,49,8.10
2016,03,15,11,50,11.30
2016,03,15,11,51,16.10
2016,03,15,11,52,11.30
2016,03,15,11,53,11.30
2016,03,15,11,54,11.30
2016,03,15,11,55,6.40
2016,03,15,11,56,9.60
2016,03,15,11,57,8.10
2016,03,15,11,58,8.10
2016,03,15,11,59,8.10
2016,03,15,12,00,9.60
2016,03,15,12,01,8.10
2016,03,15,12,02,8.10
2016,03,15,12,03,9.60
2016,03,15,12,04,14.50
2016,03,15,12,05,9.60
2016,03,15,12,06,9.60
2016,03,15,12,07,9.60
2016,03,15,12,08,9.60
2016,03,15,12,09,16.10
2016,03,15,12,10,14.50
2016,03,15,12,11,12.90
2016,03,15,12,12,11.30
2016,03,15,12,13,11.30
2016,03,15,12,14,11.30
2016,03,15,12,15,16.10
2016,03,15,12,16,9.60
2016,03,15,12,17,9.60
2016,03,15,12,18,14.50
2016,03,15,12,19,9.60
2016,03,15,12,20,11.30
2016,03,15,12,21,9.60
2016,03,15,12,22,9.60
2016,03,15,12,23,8.10
2016,03,15,12,24,11.30
2016,03,15,12,25,16.10
2016,03,15,12,26,9.60
2016,03,15,12,27,9.60
2016,03,15,12,28,8.10
2016,03,15,12,29,9.60
2016,03,15,12,30,14.50
2016,03,15,12,31,14.50
2016,03,15,12,32,17.70
2016,03,15,12,33,11.30
2016,03,15,12,34,11.30
2016,03,15,12,35,9.60
2016,03,15,12,36,6.40
2016,03,15,12,37,9.60
2016,03,15,12,38,9.60
2016,03,15,12,39,11.30
2016,03,15,12,40,8.10
2016,03,15,12,41,6.40
2016,03,15,12,42,9.60
2016,03,15,12,43,9.60
2016,03,15,12,44,11.30
2016,03,15,12,45,8.10
2016,03,15,12,46,9.60
2016,03,15,12,47,8.10
2016,03,15,12,48,11.30
2016,03,15,12,49,11.30
2016,03,15,12,50,6.40
2016,03,15,12,51,11.30
2016,03,15,12,52,11.30
2016,03,15,12,53,11.30
2016,03,15,12,54,11.30
2016,03,15,12,55,19.30
2016,03,15,12,56,16.10
2016,03,15,12,57,11.30
2016,03,15,12,58,8.10
2016,03,15,12,59,11.30
2016,03,15,13,00,14.50
2016,03,15,13,01,8.10
2016,03,15,13,02,9.60
2016,03,15,13,03,9.60
2016,03,15,13,04,6.40
2016,03,15,13,05,16.10
2016,03,15,13,06,11.30
2016,03,15,13,07,8.10
2016,03,15,13,08,9.60
2016,03,15,13,09,11.30
2016,03,15,13,10,12.90
2016,03,15,13,11,11.30
2016,03,15,13,12,11.30
2016,03,15,13,13,8.10
2016,03,15,13,14,9.60
2016,03,15,13,15,4.80
2016,03,15,13,16,9.60
2016,03,15,13,17,14.50
2016,03,15,13,18,11.30
2016,03,15,13,19,16.10
2016,03,15,13,20,11.30
2016,03,15,13,21,4.80
2016,03,15,13,22,6.40
2016,03,15,13,23,11.30
2016,03,15,13,24,14.50
2016,03,15,13,25,8.10
2016,03,15,13,26,16.10
2016,03,15,13,27,17.70
2016,03,15,13,28,19.30
2016,03,15,13,29,17.70
2016,03,15,13,30,9.60
2016,03,15,13,31,9.60
2016,03,15,13,32,8.10
2016,03,15,13,33,9.60
2016,03,15,13,34,19.30
2016,03,15,13,35,8.10
2016,03,15,13,36,8.10
2016,03,15,13,37,19.30
2016,03,15,13,38,20.90
2016,03,15,13,39,14.50
2016,03,15,13,40,8.10
2016,03,15,13,41,9.60
2016,03,15,13,42,9.60
2016,03,15,13,43,8.10
2016,03,15,13,44,19.30
2016,03,15,13,45,16.10
2016,03,15,13,46,14.50
2016,03,15,13,47,9.60
2016,03,15,13,48,14.50
2016,03,15,13,49,14.50
2016,03,15,13,50,8.10
2016,03,15,13,51,8.10
2016,03,15,13,52,8.10
2016,03,15,13,53,20.90
2016,03,15,13,54,14.50
2016,03,15,13,55,6.40
2016,03,15,13,56,8.10
2016,03,15,13,57,8.10
2016,03,15,13,58,19.30
2016,03,15,13,59,11.30
2016,03,15,14,00,8.10
2016,03,15,14,01,25.70
2016,03,15,14,02,22.50
2016,03,15,14,03,14.50
2016,03,15,14,04,14.50
2016,03,15,14,05,22.50
2016,03,15,14,06,24.20
2016,03,15,14,07,22.50
2016,03,15,14,08,17.70
2016,03,15,14,09,14.50
2016,03,15,14,10,14.50
2016,03,15,14,11,9.60
2016,03,15,14,12,14.50
2016,03,15,14,13,6.40
2016,03,15,14,14,11.30
2016,03,15,14,15,11.30
2016,03,15,14,16,14.50
2016,03,15,14,17,16.10
2016,03,15,14,18,11.30
2016,03,15,14,19,8.10
2016,03,15,14,20,8.10
2016,03,15,14,21,8.10
2016,03,15,14,22,8.10
2016,03,15,14,23,4.80
2016,03,15,14,24,14.50
2016,03,15,14,25,6.40
2016,03,15,14,26,8.10
2016,03,15,14,27,17.70
2016,03,15,14,28,9.60
2016,03,15,14,29,17.70
2016,03,15,14,30,8.10
2016,03,15,14,31,14.50
2016,03,15,14,32,19.30
2016,03,15,14,33,11.30
2016,03,15,14,34,8.10
2016,03,15,14,35,11.30
2016,03,15,14,36,19.30
2016,03,15,14,37,14.50
2016,03,15,14,38,14.50
2016,03,15,14,39,14.50
2016,03,15,14,40,16.10
2016,03,15,14,41,11.30
2016,03,15,14,42,9.60
2016,03,15,14,43,17.70
2016,03,15,14,44,24.20
2016,03,15,14,45,24.20
2016,03,15,14,46,16.10
2016,03,15,14,47,19.30
2016,03,15,14,48,16.10
2016,03,15,14,49,8.10
2016,03,15,14,50,17.70
2016,03,15,14,51,14.50
2016,03,15,14,52,8.10
2016,03,15,14,53,6.40
2016,03,15,14,54,8.10
2016,03,15,14,55,8.10
2016,03,15,14,56,6.40
2016,03,15,14,57,6.40
2016,03,15,14,58,6.40
2016,03,15,14,59,8.10
2016,03,15,15,00,4.80
2016,03,15,15,01,8.10
2016,03,15,15,02,9.60
2016,03,15,15,03,16.10
2016,03,15,15,04,19.30
2016,03,15,15,05,22.50
2016,03,15,15,06,19.30
2016,03,15,15,07,11.30
2016,03,15,15,08,16.10
2016,03,15,15,09,16.10
2016,03,15,15,10,12.90
2016,03,15,15,11,17.70
2016,03,15,15,12,16.10
2016,03,15,15,13,11.30
2016,03,15,15,14,17.70
2016,03,15,15,15,9.60
2016,03,15,15,16,11.30
2016,03,15,15,17,19.30
2016,03,15,15,18,17.70
2016,03,15,15,19,9.60
2016,03,15,15,20,11.30
2016,03,15,15,21,16.10
2016,03,15,15,22,17.70
2016,03,15,15,23,11.30
2016,03,15,15,24,9.60
2016,03,15,15,25,14.50
2016,03,15,15,26,14.50
2016,03,15,15,27,8.10
2016,03,15,15,28,6.40
2016,03,15,15,29,11.30
2016,03,15,15,30,14.50
2016,03,15,15,31,11.30
2016,03,15,15,32,12.90
2016,03,15,15,33,16.10
2016,03,15,15,34,16.10
2016,03,15,15,35,20.90
2016,03,15,15,36,16.10
2016,03,15,15,37,8.10
2016,03,15,15,38,11.30
2016,03,15,15,39,16.10
2016,03,15,15,40,14.50
2016,03,15,15,41,11.30
2016,03,15,15,42,9.60
2016,03,15,15,43,8.10
2016,03,15,15,44,20.90
2016,03,15,15,45,19.30
2016,03,15,15,46,11.30
2016,03,15,15,47,14.50
2016,03,15,15,48,11.30
2016,03,15,15,49,16.10
2016,03,15,15,50,16.10
2016,03,15,15,51,11.30
2016,03,15,15,52,8.10
2016,03,15,15,53,11.30
2016,03,15,15,54,19.30
2016,03,15,15,55,19.30
2016,03,15,15,56,6.40
2016,03,15,15,57,8.10
2016,03,15,15,58,16.10
2016,03,15,15,59,16.10
2016,03,15,16,00,16.10
2016,03,15,16,01,9.60
2016,03,15,16,02,17.70
2016,03,15,16,03,16.10
2016,03,15,16,04,11.30
2016,03,15,16,05,19.30
2016,03,15,16,06,11.30
2016,03,15,16,07,14.50
2016,03,15,16,08,12.90
2016,03,15,16,09,9.60
2016,03,15,16,10,11.30
2016,03,15,16,11,16.10
2016,03,15,16,12,14.50
2016,03,15,16,13,17.70
2016,03,15,16,14,12.90
2016,03,15,16,15,16.10
2016,03,15,16,16,17.70
2016,03,15,16,17,6.40
2016,03,15,16,18,9.60
2016,03,15,16,19,8.10
2016,03,15,16,20,8.10
2016,03,15,16,21,8.10
2016,03,15,16,22,17.70
2016,03,15,16,23,14.50
2016,03,15,16,24,6.40
2016,03,15,16,25,24.20
2016,03,15,16,26,14.50
2016,03,15,16,27,16.10
2016,03,15,16,28,16.10
2016,03,15,16,29,16.10
2016,03,15,16,30,16.10
2016,03,15,16,31,14.50
2016,03,15,16,32,14.50
2016,03,15,16,33,12.90
2016,03,15,16,34,11.30
2016,03,15,16,35,11.30
2016,03,15,16,36,8.10
2016,03,15,16,37,9.60
2016,03,15,16,38,11.30
2016,03,15,16,39,9.60
2016,03,15,16,40,8.10
2016,03,15,16,41,9.60
2016,03,15,16,42,8.10
2016,03,15,16,43,12.90
2016,03,15,16,44,16.10
2016,03,15,16,45,9.60
2016,03,15,16,46,17.70
2016,03,15,16,47,14.50
2016,03,15,16,48,4.80
2016,03,15,16,49,11.30
2016,03,15,16,50,9.60
2016,03,15,16,51,8.10
2016,03,15,16,52,8.10
2016,03,15,16,53,8.10
2016,03,15,16,54,9.60
2016,03,15,16,55,11.30
2016,03,15,16,56,9.60
2016,03,15,16,57,6.40
2016,03,15,16,58,9.60
2016,03,15,16,59,6.40
2016,03,15,17,00,6.40
2016,03,15,17,01,8.10
2016,03,15,17,02,11.30
2016,03,15,17,03,6.40
2016,03,15,17,04,4.80
2016,03,15,17,05,8.10
2016,03,15,17,06,6.40
2016,03,15,17,07,6.40
2016,03,15,17,08,6.40
2016,03,15,17,09,14.50
2016,03,15,17,10,16.10
2016,03,15,17,11,16.10
2016,03,15,17,12,14.50
2016,03,15,17,13,12.90
2016,03,15,17,14,6.40
2016,03,15,17,15,17.70
2016,03,15,17,16,12.90
2016,03,15,17,17,14.50
2016,03,15,17,18,11.30
2016,03,15,17,19,9.60
2016,03,15,17,20,11.30
2016,03,15,17,21,6.40
2016,03,15,17,22,9.60
2016,03,15,17,23,9.60
2016,03,15,17,24,9.60
2016,03,15,17,25,14.50
2016,03,15,17,26,14.50
2016,03,15,17,27,14.50
2016,03,15,17,28,12.90
2016,03,15,17,29,17.70
2016,03,15,17,30,14.50
2016,03,15,17,31,11.30
2016,03,15,17,32,11.30
2016,03,15,17,33,17.70
2016,03,15,17,34,11.30
2016,03,15,17,35,8.10
2016,03,15,17,36,9.60
2016,03,15,17,37,9.60
2016,03,15,17,38,6.40
2016,03,15,17,39,6.40
2016,03,15,17,40,9.60
2016,03,15,17,41,9.60
2016,03,15,17,42,11.30
2016,03,15,17,43,8.10
2016,03,15,17,44,9.60
2016,03,15,17,45,9.60
2016,03,15,17,46,3.20
2016,03,15,17,47,3.20
2016,03,15,17,48,3.20
2016,03,15,17,49,4.80
2016,03,15,17,50,4.80
2016,03,15,17,51,4.80
2016,03,15,17,52,4.80
2016,03,15,17,53,4.80
2016,03,15,17,54,6.40
2016,03,15,17,55,6.40
2016,03,15,17,56,4.80
2016,03,15,17,57,6.40
2016,03,15,17,58,9.60
2016,03,15,17,59,8.10
2016,03,15,18,00,9.60
2016,03,15,18,01,9.60
2016,03,15,18,02,9.60
2016,03,15,18,03,6.40
2016,03,15,18,04,9.60
2016,03,15,18,05,8.10
2016,03,15,18,06,6.40
2016,03,15,18,07,11.30
2016,03,15,18,08,9.60
2016,03,15,18,09,9.60
2016,03,15,18,10,6.40
2016,03,15,18,11,6.40
2016,03,15,18,12,3.20
2016,03,15,18,13,6.40
2016,03,15,18,14,9.60
2016,03,15,18,15,8.10
2016,03,15,18,16,11.30
2016,03,15,18,17,14.50
2016,03,15,18,18,11.30
2016,03,15,18,19,11.30
2016,03,15,18,20,8.10
2016,03,15,18,21,9.60
2016,03,15,18,22,9.60
2016,03,15,18,23,11.30
2016,03,15,18,24,8.10
2016,03,15,18,25,8.10
2016,03,15,18,26,8.10
2016,03,15,18,27,4.80
2016,03,15,18,28,8.10
2016,03,15,18,29,6.40
2016,03,15,18,30,8.10
2016,03,15,18,31,16.10
2016,03,15,18,32,6.40
2016,03,15,18,33,6.40
2016,03,15,18,34,4.80
2016,03,15,18,35,4.80
2016,03,15,18,36,3.20
2016,03,15,18,37,8.10
2016,03,15,18,38,8.10
2016,03,15,18,39,4.80
2016,03,15,18,40,6.40
2016,03,15,18,41,9.60
2016,03,15,18,42,14.50
2016,03,15,18,43,12.90
2016,03,15,18,44,8.10
2016,03,15,18,45,11.30
2016,03,15,18,46,9.60
2016,03,15,18,47,8.10
2016,03,15,18,48,6.40
2016,03,15,18,49,6.40
2016,03,15,18,50,3.20
2016,03,15,18,51,4.80
2016,03,15,18,52,3.20
2016,03,15,18,53,4.80
2016,03,15,18,54,4.80
2016,03,15,18,55,4.80
2016,03,15,18,56,4.80
2016,03,15,18,57,9.60
2016,03,15,18,58,4.80
2016,03,15,18,59,8.10
2016,03,15,19,00,8.10
2016,03,15,19,01,6.40
2016,03,15,19,02,4.80
2016,03,15,19,03,4.80
2016,03,15,19,04,4.80
2016,03,15,19,05,4.80
2016,03,15,19,06,8.10
2016,03,15,19,07,3.20
2016,03,15,19,08,3.20
2016,03,15,19,09,3.20
2016,03,15,19,10,4.80
2016,03,15,19,11,3.20
2016,03,15,19,12,4.80
2016,03,15,19,13,6.40
2016,03,15,19,14,4.80
2016,03,15,19,15,4.80
2016,03,15,19,16,8.10
2016,03,15,19,17,9.60
2016,03,15,19,18,11.30
2016,03,15,19,19,6.40
2016,03,15,19,20,8.10
2016,03,15,19,21,4.80
2016,03,15,19,22,8.10
2016,03,15,19,23,9.60
2016,03,15,19,24,3.20
2016,03,15,19,25,6.40
2016,03,15,19,26,6.40
2016,03,15,19,27,4.80
2016,03,15,19,28,8.10
2016,03,15,19,29,8.10
2016,03,15,19,30,8.10
2016,03,15,19,31,6.40
2016,03,15,19,32,8.10
2016,03,15,19,33,14.50
2016,03,15,19,34,9.60
2016,03,15,19,35,9.60
2016,03,15,19,36,6.40
2016,03,15,19,37,6.40
2016,03,15,19,38,6.40
2016,03,15,19,39,6.40
2016,03,15,19,40,4.80
2016,03,15,19,41,11.30
2016,03,15,19,42,11.30
2016,03,15,19,43,6.40
2016,03,15,19,44,6.40
2016,03,15,19,45,6.40
2016,03,15,19,46,6.40
2016,03,15,19,47,4.80
2016,03,15,19,48,4.80
2016,03,15,19,49,4.80
2016,03,15,19,50,6.40
2016,03,15,19,51,9.60
2016,03,15,19,52,6.40
2016,03,15,19,53,4.80
2016,03,15,19,54,9.60
2016,03,15,19,55,6.40
2016,03,15,19,56,4.80
2016,03,15,19,57,4.80
2016,03,15,19,58,4.80
2016,03,15,19,59,4.80
2016,03,15,20,00,4.80
2016,03,15,20,01,4.80
2016,03,15,20,02,4.80
2016,03,15,20,03,6.40
2016,03,15,20,04,6.40
2016,03,15,20,05,4.80
2016,03,15,20,06,6.40
2016,03,15,20,07,6.40
2016,03,15,20,08,6.40
2016,03,15,20,09,4.80
2016,03,15,20,10,4.80
2016,03,15,20,11,4.80
2016,03,15,20,12,4.80
2016,03,15,20,13,4.80
2016,03,15,20,14,3.20
2016,03,15,20,15,4.80
2016,03,15,20,16,4.80
2016,03,15,20,17,3.20
2016,03,15,20,18,3.20
2016,03,15,20,19,8.10
2016,03,15,20,20,6.40
2016,03,15,20,21,3.20
2016,03,15,20,22,4.80
2016,03,15,20,23,3.20
2016,03,15,20,24,3.20
2016,03,15,20,25,4.80
2016,03,15,20,26,4.80
2016,03,15,20,27,4.80
2016,03,15,20,28,4.80
2016,03,15,20,29,3.20
2016,03,15,20,30,3.20
2016,03,15,20,31,3.20
2016,03,15,20,32,3.20
2016,03,15,20,33,3.20
2016,03,15,20,34,3.20
2016,03,15,20,35,4.80
2016,03,15,20,36,4.80
2016,03,15,20,37,8.10
2016,03,15,20,38,4.80
2016,03,15,20,39,4.80
2016,03,15,20,40,3.20
2016,03,15,20,41,4.80
2016,03,15,20,42,3.20
2016,03,15,20,43,4.80
2016,03,15,20,44,4.80
2016,03,15,20,45,4.80
2016,03,15,20,46,4.80
2016,03,15,20,47,4.80
2016,03,15,20,48,3.20
2016,03,15,20,49,3.20
2016,03,15,20,50,4.80
2016,03,15,20,51,4.80
2016,03,15,20,52,3.20
2016,03,15,20,53,3.20
2016,03,15,20,54,4.80
2016,03,15,20,55,4.80
2016,03,15,20,56,3.20
2016,03,15,20,57,4.80
2016,03,15,20,58,4.80
2016,03,15,20,59,4.80
2016,03,15,21,00,4.80
2016,03,15,21,01,6.40
2016,03,15,21,02,4.80
2016,03,15,21,03,6.40
2016,03,15,21,04,6.40
2016,03,15,21,05,4.80
2016,03,15,21,06,6.40
2016,03,15,21,07,6.40
2016,03,15,21,08,4.80
2016,03,15,21,09,4.80
2016,03,15,21,10,4.80
2016,03,15,21,11,6.40
2016,03,15,21,12,4.80
2016,03,15,21,13,4.80
2016,03,15,21,14,4.80
2016,03,15,21,15,6.40
2016,03,15,21,16,4.80
2016,03,15,21,17,3.20
2016,03,15,21,18,4.80
2016,03,15,21,19,4.80
2016,03,15,21,20,4.80
2016,03,15,21,21,4.80
2016,03,15,21,22,4.80
2016,03,15,21,23,4.80
2016,03,15,21,24,4.80
2016,03,15,21,25,9.60
2016,03,15,21,26,3.20
2016,03,15,21,27,3.20
2016,03,15,21,28,3.20
2016,03,15,21,29,8.10
2016,03,15,21,30,4.80
2016,03,15,21,31,4.80
2016,03,15,21,32,3.20
2016,03,15,21,33,3.20
2016,03,15,21,34,4.80
2016,03,15,21,35,3.20
2016,03,15,21,36,3.20
2016,03,15,21,37,4.80
2016,03,15,21,38,1.60
2016,03,15,21,40,1.60
2016,03,15,21,42,1.60
2016,03,15,21,43,3.20
2016,03,15,21,44,3.20
2016,03,15,21,45,3.20
2016,03,15,21,46,3.20
2016,03,15,21,47,3.20
2016,03,15,21,48,3.20
2016,03,15,21,49,3.20
2016,03,15,21,50,1.60
2016,03,15,21,51,3.20
2016,03,15,21,52,3.20
2016,03,15,21,53,3.20
2016,03,15,21,54,3.20
2016,03,15,21,55,1.60
2016,03,15,21,56,3.20
2016,03,15,21,57,1.60
2016,03,15,21,58,3.20
2016,03,15,21,59,3.20
2016,03,15,22,00,3.20
2016,03,15,22,01,8.10
2016,03,15,22,02,3.20
2016,03,15,22,03,3.20
2016,03,15,22,04,3.20
2016,03,15,22,05,3.20
2016,03,15,22,06,3.20
2016,03,15,22,07,4.80
2016,03,15,22,08,3.20
2016,03,15,22,09,3.20
2016,03,15,22,10,6.40
2016,03,15,22,11,4.80
2016,03,15,22,12,4.80
2016,03,15,22,13,4.80
2016,03,15,22,14,4.80
2016,03,15,22,15,3.20
2016,03,15,22,16,3.20
2016,03,15,22,17,3.20
2016,03,15,22,18,4.80
2016,03,15,22,19,3.20
2016,03,15,22,20,4.80
2016,03,15,22,21,3.20
2016,03,15,22,22,3.20
2016,03,15,22,23,3.20
2016,03,15,22,24,3.20
2016,03,15,22,25,4.80
2016,03,15,22,26,3.20
2016,03,15,22,27,3.20
2016,03,15,22,28,3.20
2016,03,15,22,29,3.20
2016,03,15,22,30,1.60
2016,03,15,22,31,3.20
2016,03,15,22,32,3.20
2016,03,15,22,33,3.20
2016,03,15,22,34,4.80
2016,03,15,22,35,4.80
2016,03,15,22,36,4.80
2016,03,15,22,37,6.40
2016,03,15,22,38,8.10
2016,03,15,22,39,6.40
2016,03,15,22,40,6.40
2016,03,15,22,41,4.80
2016,03,15,22,42,4.80
2016,03,15,22,43,6.40
2016,03,15,22,44,4.80
2016,03,15,22,45,4.80
2016,03,15,22,46,8.10
2016,03,15,22,47,4.80
2016,03,15,22,48,4.80
2016,03,15,22,49,6.40
2016,03,15,22,50,4.80
2016,03,15,22,51,6.40
2016,03,15,22,52,6.40
2016,03,15,22,53,3.20
2016,03,15,22,54,4.80
2016,03,15,22,55,3.20
2016,03,15,22,56,4.80
2016,03,15,22,57,6.40
2016,03,15,22,58,4.80
2016,03,15,22,59,6.40
2016,03,15,23,00,4.80
2016,03,15,23,01,6.40
2016,03,15,23,02,3.20
2016,03,15,23,03,3.20
2016,03,15,23,04,4.80
2016,03,15,23,05,3.20
2016,03,15,23,06,3.20
2016,03,15,23,07,3.20
2016,03,15,23,08,4.80
2016,03,15,23,09,4.80
2016,03,15,23,10,4.80
2016,03,15,23,11,3.20
2016,03,15,23,12,3.20
2016,03,15,23,13,4.80
2016,03,15,23,14,3.20
2016,03,15,23,15,4.80
2016,03,15,23,16,4.80
2016,03,15,23,17,3.20
2016,03,15,23,18,3.20
2016,03,15,23,19,3.20
2016,03,15,23,20,3.20
2016,03,15,23,21,1.60
2016,03,15,23,22,3.20
2016,03,15,23,23,1.60
2016,03,15,23,24,1.60
2016,03,15,23,25,3.20
2016,03,15,23,26,6.40
2016,03,15,23,27,3.20
2016,03,15,23,28,3.20
2016,03,15,23,29,4.80
2016,03,15,23,30,3.20
2016,03,15,23,31,3.20
2016,03,15,23,32,3.20
2016,03,15,23,33,3.20
2016,03,15,23,34,4.80
2016,03,15,23,35,4.80
2016,03,15,23,36,3.20
2016,03,15,23,37,3.20
2016,03,15,23,38,4.80
2016,03,15,23,39,4.80
2016,03,15,23,40,3.20
2016,03,15,23,41,4.80
2016,03,15,23,42,3.20
2016,03,15,23,43,4.80
2016,03,15,23,44,3.20
2016,03,15,23,45,3.20
2016,03,15,23,46,4.80
2016,03,15,23,47,4.80
2016,03,15,23,48,6.40
2016,03,15,23,49,6.40
2016,03,15,23,50,6.40
2016,03,15,23,51,6.40
2016,03,15,23,52,4.80
2016,03,15,23,53,8.10
2016,03,15,23,54,6.40
2016,03,15,23,55,6.40
2016,03,15,23,56,6.40
2016,03,15,23,57,6.40
2016,03,15,23,58,8.10
2016,03,15,23,59,6.40
